Temperature
16 16 17 17 20 21 21 21 20 19 19 17 17 18 20 20 20 19 14 14 14 13 13 14 14 14 14 14 14 14 14 14 14 14 14 14 14 14 14 14 15 15 15 15 15 15 15 15 14
16 16 16 18 21 21 21 20 19 19 18 16 16 17 18 17 15 14 13 14 14 13 13 13 14 14 14 14 14 14 14 14 14 14 14 14 14 14 14 14 14 14 14 14 14 14 14 14 14
16 16 17 20 20 21 21 19 19 17 16 16 16 16 17 16 14 13 13 13 13 13 13 13 13 13 13 13 13 14 14 14 14 14 14 14 14 14 14 14 14 14 14 14 14 14 14 14 14
16 16 17 20 20 20 19 19 18 17 16 15 16 17 15 13 13 13 14 13 13 13 13 13 13 13 13 13 13 13 13 14 14 14 14 14 14 14 14 14 14 14 14 14 14 14 14 14 14
16 17 19 19 19 18 18 17 16 18 17 16 16 17 15 13 13 13 13 13 13 13 13 13 13 13 13 13 13 13 13 13 13 13 13 13 13 13 13 14 14 14 14 14 14 14 14 14 14
16 18 19 19 19 18 17 16 16 17 17 16 16 16 15 13 13 13 13 13 13 13 13 13 13 13 13 13 13 13 13 13 13 13 13 13 13 13 13 13 13 13 13 13 13 14 14 14 14
17 18 19 19 18 18 17 15 16 17 17 16 15 16 15 13 13 13 13 13 13 13 13 13 12 12 12 12 13 13 13 13 13 13 13 13 13 13 13 13 13 13 13 13 13 13 13 13 13
15 18 17 17 18 18 16 15 15 16 16 14 14 16 15 13 13 13 13 12 12 12 12 12 12 12 12 12 12 12 12 13 13 13 13 13 13 13 13 13 13 13 13 13 13 13 13 13 13
14 17 17 17 17 17 15 15 14 13 14 13 13 13 13 13 13 12 12 12 12 12 12 12 12 12 12 12 12 12 12 12 12 12 12 12 12 12 12 12 12 12 13 13 13 13 13 13 12
15 17 17 16 16 16 15 15 14 14 14 14 13 12 13 13 13 12 12 12 12 12 12 12 12 12 12 12 12 12 12 12 12 12 12 12 12 12 12 12 12 12 12 12 12 12 12 12 12
14 15 15 14 13 14 14 13 13 14 15 14 14 12 12 12 12 12 12 12 12 12 12 12 12 12 12 12 11 11 11 11 11 11 11 12 12 12 12 12 12 12 12 12 12 12 12 12 12
14 13 13 13 12 12 13 13 13 13 14 13 12 12 12 12 12 12 12 12 12 12 12 12 12 11 11 11 11 11 11 11 11 11 11 11 11 11 11 11 11 11 11 11 11 11 11 11 11
13 13 12 11 11 11 11 12 12 12 12 12 12 11 11 11 11 11 11 11 11 11 11 11 11 11 11 11 11 11 11 11 11 11 11 11 11 11 11 11 11 11 11 11 11 11 11 11 11
12 12 12 11 11 11 12 12 11 12 11 11 11 11 11 11 11 11 11 11 11 11 11 11 11 11 11 11 11 11 11 11 11 11 11 11 11 11 11 11 11 11 11 11 11 11 11 11 11
11 12 13 12 12 11 11 13 12 12 11 11 10 10 10 10 10 10 11 11 11 11 11 11 11 11 11 11 10 10 10 10 10 10 10 10 10 10 10 10 10 10 10 10 10 10 10 10 10
12 13 14 13 12 11 12 14 14 11 10 11 11 10 10 10 10 10 10 10 11 11 11 11 10 10 10 10 10 10 10 10 10 10 10 10 10 10 10 10 10 10 10 10 10 10 10 10 10
13 14 14 13 11 11 12 13 13 10 10 11 11 10 10 10 10 10 10 10 10 10 10 10 10 10 10 10 10 10 10 10 9 9 9 10 10 10 10 10 10 10 9 9 9 9 9 9 9
13 13 13 13 12 11 11 12 13 11 10 10 10 10 10 9 9 9 9 10 10 10 10 10 10 10 10 10 9 9 9 9 9 9 9 9 9 9 9 9 9 9 9 9 9 9 9 8 8
12 12 12 12 11 10 11 12 12 11 10 10 10 10 9 9 9 9 9 9 9 10 10 10 9 9 9 9 9 9 9 9 9 9 9 9 9 9 9 9 9 8 8 8 8 8 8 8 8
11 11 12 11 10 10 11 11 12 11 10 10 10 9 9 8 8 8 8 8 9 9 9 9 9 9 9 9 9 9 9 9 9 8 8 8 8 8 8 8 8 8 8 8 8 8 8 7 7
10 11 11 10 10 9 10 12 12 11 10 9 8 8 8 8 8 7 8 8 8 8 8 9 9 9 9 9 9 9 8 8 8 8 8 8 8 8 8 8 8 8 8 8 8 7 7 7 7
10 10 9 9 10 11 10 11 13 11 11 10 9 8 7 7 7 7 7 8 8 8 8 8 8 8 8 8 8 8 8 8 8 8 8 8 8 8 8 8 8 8 8 7 7 7 7 7 7
9 8 8 9 10 10 10 10 12 11 10 10 9 7 6 6 6 6 7 7 7 7 7 7 7 8 8 8 8 8 8 8 8 8 7 7 7 7 7 7 7 7 7 7 7 7 7 7 7
8 8 8 9 9 9 10 10 11 11 9 9 8 7 6 5 5 5 6 6 7 7 7 7 7 7 7 7 7 7 7 7 7 7 7 7 7 7 7 7 7 7 7 7 7 7 7 7 6
8 9 9 9 9 10 9 9 10 9 8 8 7 6 5 5 5 5 5 6 6 6 7 7 7 7 7 7 7 7 7 7 7 7 7 7 7 7 7 7 7 7 7 6 6 6 6 6 6
7 8 9 9 10 10 8 8 9 8 6 6 5 5 5 4 4 4 5 5 5 6 6 6 6 6 6 6 7 6 6 6 6 7 7 7 6 6 6 6 6 6 6 6 6 6 6 6 6
7 7 7 8 8 8 9 9 8 7 6 6 5 5 4 4 4 4 4 5 5 5 5 6 6 6 6 6 6 6 6 6 6 6 6 6 6 6 6 6 6 6 6 6 6 6 6 5 5
6 7 6 7 7 8 9 9 8 7 6 6 5 5 4 4 4 4 4 4 5 5 5 5 5 5 5 5 5 6 6 6 6 6 6 6 6 6 5 5 5 5 5 5 5 5 5 5 5
5 5 6 7 7 7 8 9 7 6 6 5 5 4 4 3 3 3 4 4 4 4 5 5 5 5 5 5 5 5 5 5 5 5 5 5 5 5 5 5 5 5 5 5 5 5 5 5 5
5 6 6 6 6 6 7 7 6 5 5 5 4 4 3 3 2 2 3 3 3 4 4 4 4 4 4 4 4 5 5 5 5 5 5 5 5 5 5 5 5 5 5 5 5 4 4 4 4
Wind_Speed
1 1 2 3 4 5 7 4 3 4 3 1 1 2 2 1 1 2 4 4 5 6 7 8 7 8 7 7 7 7 7 6 6 6 6 6 6 6 7 7 7 7 8 8 9 9 10 10 10
0 1 2 3 5 7 5 5 6 4 3 3 2 2 2 1 2 3 4 5 6 7 7 7 8 8 8 7 6 6 6 5 5 6 5 5 5 5 6 6 6 7 8 9 9 9 9 9 10
1 1 2 3 5 7 4 3 4 4 3 3 3 1 1 1 2 3 4 6 6 7 7 8 8 8 8 7 6 6 5 5 5 5 5 4 5 5 5 5 6 7 8 8 8 9 9 9 9
2 2 2 4 7 5 3 2 4 6 4 3 3 3 2 1 1 3 5 7 7 7 7 8 8 7 7 7 6 5 5 4 4 5 5 4 4 4 4 5 6 7 7 7 8 8 8 8 8
1 2 4 6 7 3 2 2 5 6 5 4 4 3 2 2 2 5 6 7 7 7 7 8 7 7 6 6 5 5 5 4 4 4 4 4 4 4 5 5 5 6 6 6 7 7 8 7 8
2 3 5 8 6 3 3 4 5 6 4 4 4 3 2 4 4 5 6 6 6 6 6 7 7 7 6 6 5 5 5 4 4 4 4 4 4 4 4 4 5 5 5 6 6 6 7 7 7
3 3 4 5 5 5 3 4 5 5 5 4 3 3 3 4 4 5 6 6 5 5 5 5 6 7 6 5 5 4 5 5 4 4 4 4 4 4 5 4 4 4 5 5 6 6 6 6 6
1 3 4 4 5 4 3 4 2 5 4 2 3 3 2 4 5 6 6 5 5 4 4 5 5 5 5 5 5 5 5 5 4 5 5 4 4 5 5 5 4 5 4 5 5 5 6 6 6
2 4 6 5 4 2 4 4 2 1 2 3 3 2 2 5 7 7 6 6 5 4 4 4 4 4 4 4 5 5 5 5 4 4 4 3 3 4 5 5 5 5 5 5 5 5 6 5 5
3 5 5 2 2 1 3 3 3 3 4 4 4 3 2 6 8 8 8 8 7 7 5 4 4 4 4 4 4 4 3 3 2 2 3 2 2 3 3 5 5 4 5 5 5 5 6 4 4
2 4 2 2 2 2 3 3 3 5 6 7 7 5 5 7 8 9 8 7 7 6 5 4 4 4 4 3 3 2 3 3 2 2 2 2 2 2 2 2 3 2 3 3 4 4 3 3 3
2 2 2 2 1 2 4 4 4 7 6 4 5 4 6 8 9 9 9 8 6 6 5 4 4 4 4 4 3 3 3 2 2 2 1 1 1 1 1 1 1 1 2 2 2 2 2 2 2
4 3 2 2 2 3 4 6 6 8 8 5 3 4 7 9 9 9 8 7 7 6 5 5 5 5 5 4 3 3 3 2 2 2 2 2 1 1 1 1 1 1 1 2 2 2 2 2 2
2 2 3 3 3 3 5 6 6 8 5 4 5 6 7 8 9 8 7 8 8 7 6 5 6 5 5 5 4 3 3 3 2 2 2 2 2 2 1 1 1 1 2 2 2 3 2 2 2
1 2 3 3 3 2 4 7 8 6 3 5 6 6 7 8 8 9 8 8 8 7 6 6 6 6 6 6 5 4 4 4 3 2 2 2 2 2 2 1 1 1 2 2 2 3 2 2 2
2 3 4 2 2 2 4 9 3 2 5 7 7 6 7 7 8 8 8 7 7 6 6 7 5 6 6 5 5 4 4 4 3 2 2 2 2 2 2 2 1 1 2 2 2 2 2 2 2
3 5 6 3 2 2 5 9 4 2 5 7 7 7 7 7 7 7 7 7 6 6 6 7 7 6 6 5 4 4 4 4 3 3 2 2 2 2 2 2 2 2 2 2 2 2 2 2 2
4 5 6 6 2 5 8 12 8 5 6 7 7 7 7 7 7 6 6 6 6 5 6 6 6 6 6 5 4 3 4 4 3 3 3 3 3 3 3 2 2 2 2 2 3 3 2 2 2
3 6 8 6 3 5 10 13 11 7 7 8 7 6 6 7 6 4 5 5 5 5 5 6 6 6 6 5 4 4 4 4 3 3 4 4 4 4 3 2 2 3 3 3 4 3 3 2 2
5 8 9 6 3 6 10 13 11 7 6 6 6 6 6 6 4 3 3 4 5 6 6 6 6 7 7 5 5 3 4 3 3 3 4 4 4 4 3 3 3 3 3 4 4 4 3 2 2
7 8 8 8 7 5 8 9 7 3 2 3 4 5 5 5 5 4 4 4 5 5 6 6 6 6 6 6 4 3 3 3 3 4 3 4 4 4 3 4 4 3 4 4 4 5 5 3 3
7 5 7 8 7 5 4 7 6 3 3 3 4 4 5 5 5 4 3 4 5 5 5 5 5 6 6 6 5 6 5 5 4 4 4 4 4 4 4 4 4 4 3 4 4 5 4 5 4
5 4 6 8 9 8 7 7 6 2 3 4 5 5 6 5 5 4 3 4 4 4 4 5 5 5 5 5 6 6 5 4 3 3 4 4 4 4 4 4 4 4 4 4 4 4 5 5 5
3 3 4 5 6 8 7 8 6 2 2 4 5 6 7 6 4 4 3 2 2 2 2 3 5 5 5 5 5 6 6 5 5 4 4 4 4 3 4 4 4 4 4 4 4 4 5 5 5
2 3 3 4 6 7 2 6 6 1 2 4 6 7 7 6 5 4 3 2 2 1 2 3 4 4 4 5 5 6 5 5 6 5 5 4 4 4 4 4 4 4 4 4 4 4 5 5 5
3 4 5 5 6 5 4 7 3 2 3 4 6 6 6 6 6 5 4 2 2 2 2 3 3 4 4 5 5 5 5 4 4 5 5 5 4 4 4 5 5 5 5 4 4 4 4 4 4
2 4 3 4 6 8 7 5 4 1 4 6 7 7 7 7 6 5 4 3 3 3 3 3 3 4 4 4 4 4 5 5 4 5 5 4 4 3 4 5 5 5 5 5 4 4 4 4 4
3 2 2 4 5 8 8 7 5 2 3 5 6 7 8 7 7 6 5 4 3 3 2 3 3 4 4 4 4 3 4 4 4 4 5 4 4 4 4 5 5 5 5 5 5 4 5 5 4
3 3 4 5 6 6 8 5 1 2 2 3 5 6 7 7 6 5 5 5 4 3 2 2 2 3 3 3 3 4 3 3 4 4 4 4 4 4 5 5 5 5 5 5 5 5 5 6 5
5 5 6 6 7 7 8 6 1 1 2 4 6 7 7 7 6 6 6 6 5 5 3 2 2 3 3 3 3 3 3 3 4 4 4 4 4 4 4 4 5 6 5 5 6 6 6 6 6
Wind_Direction
30 176 223 217 210 224 233 212 199 170 175 157 150 203 212 216 272 49 91 137 138 144 146 145 135 130 124 117 113 110 105 100 103 106 108 110 110 106 103 102 105 107 103 100 100 97 100 98 99
42 224 207 211 228 230 223 203 198 185 136 132 150 182 197 192 37 88 128 141 146 144 146 143 133 131 126 120 115 111 107 105 105 108 107 107 110 110 108 103 104 106 104 100 101 97 102 102 101
133 296 204 203 227 240 218 168 179 150 152 180 169 193 240 142 124 127 125 148 151 145 146 138 135 132 127 122 116 112 110 110 111 115 115 112 112 111 113 109 110 107 103 101 104 104 103 104 107
203 172 193 227 230 240 248 158 156 161 163 186 191 178 169 66 122 126 137 153 153 147 145 137 137 134 129 126 120 113 106 106 116 119 118 115 117 118 112 110 111 112 109 106 107 111 109 106 108
195 203 210 226 235 228 230 226 190 191 181 181 197 196 169 127 112 133 146 154 154 150 148 142 136 135 133 130 124 117 109 106 116 121 125 119 112 110 108 108 113 117 117 113 110 112 115 114 114
172 208 225 232 224 216 214 200 195 207 194 179 197 199 164 128 142 144 150 153 154 150 150 149 142 136 134 134 130 125 114 110 119 116 114 115 112 113 111 109 118 124 126 125 118 116 116 117 119
209 212 235 236 228 224 203 182 206 210 206 200 202 196 162 158 152 146 148 150 151 151 154 154 154 148 138 134 132 126 114 107 119 120 110 103 104 110 108 109 117 128 129 129 128 126 124 120 125
214 206 217 222 225 224 170 173 212 221 220 161 200 218 198 166 155 152 150 155 157 161 162 159 158 154 153 150 135 129 118 109 107 108 100 99 108 109 107 114 113 119 124 127 128 130 126 126 126
214 225 230 221 218 204 166 186 178 221 202 191 217 265 7 138 156 163 170 178 179 179 182 177 167 161 159 159 145 141 129 117 117 115 107 110 123 121 118 101 101 115 115 121 126 128 132 134 132
209 229 233 221 223 214 185 214 203 199 219 231 240 239 153 155 169 181 191 195 197 197 196 193 179 172 168 162 159 155 151 139 133 129 133 128 119 112 111 99 98 105 114 122 126 129 143 154 149
206 230 222 228 237 240 213 225 221 226 242 245 243 223 184 182 188 198 204 208 209 207 205 199 187 182 176 167 166 155 147 140 135 128 129 135 130 122 113 121 119 124 139 143 137 151 156 156 151
201 233 239 253 240 233 238 232 232 237 254 289 264 226 195 200 206 211 213 215 215 213 210 204 195 186 182 178 173 164 154 148 143 140 144 142 134 132 129 133 139 153 159 149 153 149 153 153 153
218 231 242 257 250 254 247 244 253 254 258 277 256 214 211 212 217 220 223 221 220 219 215 209 199 195 185 178 175 173 170 168 166 162 166 165 151 157 158 147 135 158 163 165 162 153 156 151 151
201 220 255 273 258 250 252 260 252 258 261 248 236 228 224 222 222 222 223 224 223 223 219 210 205 198 191 183 181 181 177 175 177 164 165 176 172 167 179 171 163 178 173 181 170 162 164 156 155
187 245 257 250 245 248 272 262 240 258 247 246 244 241 238 235 229 227 225 225 224 224 218 210 205 199 194 191 187 182 179 178 179 163 164 168 173 185 187 186 187 186 171 171 162 159 162 154 148
215 235 245 203 236 246 258 265 265 266 244 254 253 250 248 243 239 237 234 230 226 221 215 207 200 197 194 189 191 183 181 179 178 172 170 171 171 193 189 183 189 180 170 170 164 164 164 160 153
220 249 258 256 221 260 248 269 292 297 264 262 260 257 255 254 251 245 238 232 224 217 210 202 198 195 191 188 188 183 177 181 176 173 173 182 183 196 189 185 181 174 167 170 169 170 175 163 146
249 258 263 263 263 270 261 267 280 280 271 271 270 267 264 260 257 250 238 229 219 212 206 200 194 191 183 179 180 180 181 184 182 179 182 188 192 198 187 182 180 175 172 168 167 164 163 157 134
268 261 272 276 284 273 266 274 281 281 271 270 270 270 269 267 267 256 236 221 211 203 201 197 193 186 180 180 184 189 195 191 191 191 191 194 200 198 189 187 179 181 184 177 169 157 154 139 135
253 268 277 281 281 280 280 278 278 272 262 266 270 271 273 276 271 260 238 215 208 204 201 198 199 193 190 193 189 190 186 194 196 195 194 198 199 195 194 193 191 194 189 182 179 173 174 171 189
258 262 276 287 306 263 286 274 251 250 249 279 282 282 284 279 275 267 244 226 215 208 205 202 201 198 195 190 178 163 167 177 189 194 197 199 200 195 197 200 198 196 194 193 192 191 191 188 205
267 269 274 278 281 272 275 282 268 265 281 314 321 321 307 298 287 279 260 240 226 216 208 205 203 200 195 187 190 188 192 196 204 203 200 195 197 196 198 203 202 199 200 203 201 203 204 195 199
278 300 270 266 264 270 249 252 267 271 288 330 353 347 338 325 309 295 272 250 230 211 205 204 200 200 195 192 195 200 205 205 201 199 201 200 195 195 196 199 205 203 204 208 207 209 210 204 201
275 274 256 243 243 251 239 235 264 261 292 328 346 351 348 344 336 322 307 288 237 210 205 205 199 199 198 198 202 206 207 201 197 204 204 207 200 196 195 195 203 206 208 208 208 211 216 215 208
280 270 262 240 230 242 209 238 250 320 347 333 337 345 350 354 356 349 337 315 283 230 212 206 201 202 204 207 210 213 214 209 207 209 211 210 208 205 203 200 205 208 212 210 209 209 214 217 213
251 249 250 259 262 270 248 241 234 352 359 349 346 349 354 360 360 356 340 308 290 257 227 213 209 210 210 213 217 217 217 217 217 214 215 215 216 217 208 207 209 210 209 206 205 212 215 218 216
227 236 283 273 275 269 249 241 250 328 1 5 4 4 0 356 352 350 346 330 306 277 250 233 221 217 217 218 218 218 216 217 218 217 216 216 217 217 212 210 213 213 209 205 202 210 210 214 220
282 240 216 237 256 261 259 247 240 243 333 358 2 357 351 348 348 347 346 341 327 298 269 246 237 230 226 222 221 221 220 217 216 217 214 212 214 212 213 212 211 211 208 205 204 211 210 212 219
223 216 236 247 256 261 267 258 288 250 300 330 341 343 342 339 340 341 345 344 345 337 295 254 243 244 237 228 224 220 221 219 217 219 220 217 216 213 216 216 211 212 212 208 208 213 211 216 218
242 236 223 247 252 251 267 269 72 256 316 326 329 335 337 336 338 341 345 347 348 347 339 286 256 250 248 240 231 225 220 216 216 220 223 220 220 220 218 218 214 212 213 211 210 214 215 216 217
Height
1518 1519 1521 1523 1523 1518 1515 1516 1518 1521 1522 1524 1525 1524 1522 1522 1524 1529 1529 1527 1528 1530 1531 1532 1533 1535 1535 1536 1537 1537 1538 1538 1538 1539 1539 1539 1540 1540 1540 1541 1541 1542 1542 1542 1542 1543 1543 1543 1544
1519 1520 1523 1523 1518 1515 1514 1515 1519 1520 1523 1525 1526 1526 1525 1525 1527 1527 1526 1527 1528 1530 1531 1532 1533 1534 1535 1536 1536 1537 1537 1538 1538 1538 1539 1539 1540 1540 1540 1541 1541 1542 1542 1542 1543 1543 1544 1544 1544
1520 1521 1524 1520 1516 1512 1512 1516 1518 1523 1525 1525 1526 1526 1526 1526 1527 1527 1526 1527 1528 1530 1531 1532 1533 1534 1535 1535 1536 1536 1537 1537 1537 1538 1538 1539 1539 1539 1540 1540 1541 1541 1542 1542 1543 1543 1544 1544 1545
1521 1523 1523 1519 1515 1515 1516 1518 1521 1523 1525 1525 1525 1525 1526 1526 1526 1526 1526 1527 1528 1530 1531 1532 1533 1534 1534 1535 1535 1536 1536 1536 1536 1537 1537 1538 1538 1539 1539 1540 1540 1541 1542 1542 1543 1543 1544 1545 1545
1521 1522 1519 1517 1515 1517 1519 1521 1522 1521 1522 1524 1525 1524 1525 1525 1524 1525 1526 1527 1528 1530 1531 1532 1532 1533 1534 1534 1535 1535 1535 1535 1536 1536 1537 1537 1537 1538 1538 1539 1540 1541 1541 1542 1543 1543 1544 1544 1545
1522 1520 1516 1514 1514 1518 1520 1522 1522 1521 1522 1524 1525 1524 1524 1524 1524 1525 1526 1527 1528 1529 1530 1531 1532 1532 1533 1533 1534 1534 1534 1535 1535 1535 1536 1536 1537 1537 1538 1538 1539 1540 1541 1541 1542 1543 1543 1544 1545
1522 1518 1514 1514 1515 1516 1519 1522 1521 1521 1521 1523 1524 1523 1524 1524 1524 1525 1526 1527 1528 1529 1530 1530 1531 1532 1532 1533 1533 1533 1533 1534 1534 1534 1535 1535 1536 1536 1537 1538 1538 1539 1540 1541 1541 1542 1542 1543 1544
1520 1519 1517 1516 1515 1515 1519 1521 1521 1522 1521 1523 1524 1523 1522 1523 1523 1524 1525 1526 1527 1528 1529 1529 1530 1531 1531 1532 1532 1532 1532 1533 1533 1533 1534 1534 1535 1536 1536 1537 1537 1538 1539 1540 1540 1541 1542 1542 1543
1520 1519 1514 1514 1515 1515 1519 1520 1521 1522 1522 1522 1522 1522 1522 1521 1522 1523 1524 1525 1526 1527 1528 1528 1529 1529 1530 1530 1531 1531 1531 1532 1532 1532 1533 1533 1534 1535 1535 1536 1536 1537 1538 1539 1539 1540 1541 1541 1542
1520 1516 1513 1516 1517 1517 1519 1520 1521 1521 1520 1520 1520 1520 1520 1520 1521 1522 1523 1524 1524 1525 1526 1527 1527 1528 1528 1529 1529 1530 1530 1530 1531 1531 1531 1532 1533 1533 1534 1534 1535 1536 1537 1537 1538 1539 1539 1540 1541
1519 1516 1517 1518 1519 1519 1519 1520 1521 1519 1518 1518 1518 1518 1518 1519 1519 1520 1521 1522 1523 1523 1524 1525 1526 1526 1527 1527 1528 1528 1529 1529 1529 1530 1530 1531 1531 1532 1533 1533 1534 1535 1535 1536 1537 1537 1538 1539 1540
1519 1519 1519 1519 1519 1519 1519 1519 1519 1518 1517 1517 1517 1517 1516 1516 1517 1518 1519 1520 1521 1521 1522 1522 1523 1524 1525 1526 1526 1527 1527 1527 1528 1528 1529 1529 1530 1530 1531 1532 1532 1533 1533 1534 1535 1536 1536 1537 1538
1518 1519 1520 1519 1519 1519 1519 1518 1517 1516 1516 1515 1514 1514 1514 1514 1515 1516 1516 1517 1518 1519 1519 1520 1521 1522 1523 1523 1524 1525 1525 1526 1526 1527 1527 1528 1528 1529 1529 1530 1530 1531 1532 1532 1533 1534 1535 1536 1537
1518 1519 1519 1519 1518 1518 1518 1516 1516 1512 1513 1513 1512 1512 1512 1512 1512 1513 1513 1513 1514 1515 1516 1517 1518 1519 1520 1521 1522 1522 1523 1524 1524 1525 1525 1526 1526 1527 1527 1528 1528 1529 1530 1531 1532 1532 1533 1534 1535
1520 1518 1517 1517 1517 1517 1517 1512 1511 1510 1511 1510 1510 1509 1509 1509 1509 1509 1510 1510 1511 1512 1513 1514 1515 1516 1517 1518 1519 1520 1521 1522 1522 1523 1523 1524 1524 1525 1525 1526 1526 1527 1528 1529 1530 1530 1531 1532 1533
1518 1516 1512 1514 1516 1516 1517 1506 1507 1509 1509 1508 1507 1507 1506 1506 1506 1506 1507 1507 1508 1509 1510 1511 1512 1513 1514 1516 1517 1518 1519 1519 1520 1521 1521 1522 1522 1523 1523 1524 1524 1525 1526 1527 1528 1529 1529 1530 1531
1514 1511 1509 1512 1515 1515 1514 1505 1506 1507 1506 1505 1505 1504 1503 1503 1503 1503 1503 1504 1505 1506 1507 1508 1509 1510 1512 1513 1514 1515 1516 1517 1518 1518 1519 1519 1520 1520 1521 1521 1522 1523 1523 1525 1526 1527 1528 1528 1529
1511 1510 1511 1510 1512 1514 1511 1504 1504 1505 1505 1503 1502 1501 1500 1500 1500 1500 1500 1500 1501 1502 1504 1505 1506 1507 1509 1510 1511 1512 1513 1514 1515 1516 1516 1517 1517 1518 1518 1519 1520 1520 1521 1522 1523 1525 1526 1526 1527
1515 1513 1510 1510 1513 1513 1507 1502 1500 1502 1501 1500 1499 1498 1498 1497 1497 1497 1497 1497 1498 1499 1500 1501 1503 1504 1506 1507 1508 1509 1510 1511 1512 1513 1514 1514 1515 1515 1516 1517 1517 1518 1519 1520 1521 1522 1523 1524 1525
1516 1513 1509 1509 1513 1511 1505 1500 1497 1497 1497 1497 1496 1495 1495 1494 1493 1493 1493 1493 1494 1495 1497 1498 1500 1501 1502 1504 1505 1506 1507 1508 1510 1510 1511 1512 1512 1513 1513 1514 1515 1516 1517 1518 1519 1520 1521 1522 1523
1514 1512 1510 1511 1511 1510 1506 1493 1490 1492 1494 1494 1494 1493 1493 1492 1491 1490 1490 1490 1491 1492 1493 1495 1496 1498 1499 1501 1502 1503 1505 1506 1507 1508 1508 1509 1510 1510 1511 1512 1513 1513 1514 1515 1516 1517 1518 1519 1521
1511 1513 1514 1513 1510 1502 1505 1495 1484 1488 1490 1491 1491 1491 1490 1489 1489 1488 1487 1487 1488 1489 1490 1492 1493 1495 1496 1498 1499 1500 1501 1502 1503 1505 1505 1506 1507 1508 1508 1509 1510 1511 1511 1512 1513 1514 1515 1517 1518
1513 1516 1514 1512 1508 1505 1501 1499 1484 1486 1487 1488 1490 1490 1488 1487 1486 1485 1485 1485 1486 1487 1487 1489 1490 1492 1493 1494 1496 1497 1498 1499 1500 1501 1502 1503 1504 1504 1505 1506 1507 1508 1509 1509 1510 1511 1512 1513 1514
1517 1515 1511 1509 1506 1503 1496 1495 1483 1484 1487 1488 1489 1489 1488 1486 1485 1484 1483 1483 1484 1484 1485 1486 1487 1488 1490 1491 1493 1494 1495 1496 1497 1498 1499 1500 1501 1501 1502 1503 1504 1505 1505 1506 1507 1508 1509 1510 1511
1516 1511 1506 1503 1500 1492 1497 1495 1487 1487 1490 1490 1490 1489 1487 1485 1484 1482 1481 1481 1481 1482 1483 1483 1484 1485 1487 1488 1489 1490 1492 1493 1494 1495 1495 1496 1497 1498 1499 1500 1500 1501 1502 1503 1504 1505 1506 1506 1508
1514 1512 1508 1504 1494 1488 1495 1491 1486 1491 1492 1491 1490 1489 1487 1485 1483 1481 1480 1479 1479 1480 1480 1481 1481 1482 1483 1484 1486 1487 1488 1489 1490 1491 1492 1493 1494 1494 1495 1496 1497 1498 1499 1500 1500 1501 1502 1503 1504
1514 1512 1512 1509 1503 1499 1485 1486 1489 1489 1490 1490 1489 1488 1486 1484 1482 1481 1479 1478 1478 1478 1478 1478 1479 1479 1480 1481 1482 1484 1485 1485 1487 1488 1488 1489 1490 1491 1491 1492 1493 1494 1495 1496 1497 1497 1498 1500 1501
1517 1513 1513 1510 1505 1494 1481 1483 1482 1487 1489 1489 1489 1487 1486 1484 1482 1480 1479 1477 1476 1476 1476 1476 1476 1477 1477 1478 1479 1480 1481 1482 1483 1484 1485 1486 1486 1487 1488 1488 1489 1490 1491 1492 1493 1494 1495 1496 1497
1517 1516 1512 1507 1504 1497 1485 1481 1487 1487 1489 1490 1489 1488 1486 1484 1482 1480 1478 1476 1475 1474 1473 1473 1473 1474 1475 1475 1476 1476 1477 1478 1479 1480 1481 1482 1483 1483 1484 1484 1485 1486 1487 1488 1489 1489 1490 1492 1493
1513 1511 1511 1510 1504 1501 1493 1488 1489 1490 1490 1490 1489 1487 1486 1484 1482 1479 1477 1475 1473 1472 1471 1471 1471 1471 1471 1472 1472 1473 1474 1475 1475 1476 1477 1478 1479 1479 1480 1480 1481 1482 1483 1484 1485 1485 1486 1487 1488